Hourly Data Report for February 07, 2017

All times are specified in Local Standard Time (LST). Add 1 hour to adjust for Daylight Saving Time where and when it is observed.

COLVILLE LAKE
NORTHWEST TERRITORIES

67°01'17.040" N
126°07'23.070" W
271.00 m
2200824
71055
WFX

Download Data

Hourly Data (February 2017)
Hourly Data Report for February 7, 2017
Temp Definition
°C
Dew Point Temp Definition
°C
Rel Hum Definition
%
Wind Dir Definition
10's deg

Wind Spd Definition
km/h
Visibility Definition
km
Stn Press Definition
kPa
Hmdx Definition


Wind Chill Definition


Weather Definition


TIME
00:00 -18.7 -20.9 83 34 16   98.79   -28 LegendNANA
01:00 -19.8 -22.0 83 35 8   98.82   -26 LegendNANA
02:00 -19.7 -21.9 83 33 12   98.81   -28 LegendNANA
03:00 -19.8 -22.0 83 34 7   98.81   -25 LegendNANA
04:00 -20.8 -23.0 83 35 6   98.83   -26 LegendNANA
05:00 -21.1 -23.3 82 31 7   98.78   -27 LegendNANA
06:00 -21.6 -24.0 81 33 12   98.78   -30 LegendNANA
07:00 -21.7 -24.2 80 32 8   98.74   -28 LegendNANA
08:00 -21.7 -24.1 81 32 5   98.69   -26 LegendNANA
09:00 -20.9 -23.3 81 29 6   98.61   -26 LegendNANA
10:00 -21.7 -24.1 81 17 6   98.56   -27 LegendNANA
11:00 -20.9 -23.3 81 21 8   98.48   -27 LegendNANA
12:00 -19.4 -21.8 81 22 10   98.39   -26 LegendNANA
13:00 -18.4 -20.9 81 23 13   98.30   -26 LegendNANA
14:00 -17.9 -20.3 81 22 15   98.27   -26 LegendNANA
15:00 -17.4 -19.7 82 21 14   98.15   -26 LegendNANA
16:00 -17.0 -19.2 83 21 16   98.08   -26 LegendNANA
17:00 -17.4 -19.5 84 22 20   97.97   -27 LegendNANA
18:00 -17.5 -19.7 83 21 17   97.85   -27 LegendNANA
19:00 -16.7 -18.7 84 21 20   97.73   -26 LegendNANA
20:00 -16.7 -18.7 85 20 17   97.62   -26 LegendNANA
21:00 -16.6 -18.6 84 19 16   97.49   -25 LegendNANA
22:00 -16.6 -18.6 84 20 19   97.40   -26 LegendNANA
23:00 -16.5 -18.5 84 20 21   97.30   -26 LegendNANA

Notes on Data Quality.

Legend

  • E = Estimated
  • M = Missing
  • NA = Not Available
  • ‡ = Partner data that is not subject to review by the National Climate Archives
Date modified: